Skip Page Navigation
NASA JPL Caltech
NASA Logo - Jet Propulsion Laboratory + View the NASA Portal
+ Near-Earth Object (NEO) Program
Search JPL
JPL Home Earth Solar System Stars & Galaxies Technology
JPL Solar System Dynamics
BODIES ORBITS EPHEMERIDES TOOLS PHYSICAL DATA DISCOVERY FAQ SITE MAP
JPL Small-Body Database Browser
Search: [ help ]  
52271 Lecorbusier (1988 RP3)
Classification: Main-belt Asteroid          SPK-ID: 2052271
Ephemeris | Orbit Diagram | Orbital Elements | Physical Parameters | Discovery Circumstances ]

[ show orbit diagram ]
Orbital Elements at Epoch 2456800.5 (2014-May-23.0) TDB
Reference: JPL 9 (heliocentric ecliptic J2000)
 Element Value Uncertainty (1-sigma)   Units 
e .1807693425346863 1.4141e-07  
a 2.586634236864618 2.301e-08 AU
q 2.119050066488891 3.7513e-07 AU
i 13.23042466503012 1.2574e-05 deg
node 357.7496331459153 2.6904e-05 deg
peri 36.37709997971668 3.6638e-05 deg
M 38.69622960241436 2.1939e-05 deg
tp 2456637.169568358838
(2013-Dec-10.66956836)
9.2144e-05 JED
period 1519.500891816856
4.16
2.0275e-05
5.551e-08
d
yr
n .2369199004349058 3.1613e-09 deg/d
Q 3.054218407240346 2.7169e-08 AU
  Orbit Determination Parameters
   # obs. used (total)      665  
   data-arc span      9317 days (25.51 yr)  
   first obs. used      1988-09-08  
   last obs. used      2014-03-13  
   planetary ephem.      DE431  
   SB-pert. ephem.      SB431-BIG16  
   condition code      0  
   fit RMS      .55507  
   data source      ORB  
   producer      Otto Matic  
   solution date      2014-Mar-22 11:54:21  

Additional Information
 Earth MOID = 1.13622 AU 
 T_jup = 3.362 
[ show covariance matrix ]

Ephemeris | Orbit Diagram | Orbital Elements | Physical Parameters | Discovery Circumstances ]

Physical Parameter Table
Parameter Symbol Value Units Sigma Reference Notes
absolute magnitude H 13.5 mag n/a MPO270398  

52271 Lecorbusier           Discovered 1988 Sept. 8 by F. Börngen at Tautenburg.
Swiss-French Le Corbusier (1887-1965) was one of the most influential architects and city planners of the modern age. In his numerous writings he presented his new ideas and conceptions of form.
NOTE: some special characters may not display properly (any characters within {} are an attempt to place the proper accent above a character)
Reference: 20030501/MPCPages.arcLast Updated: 2003-10-02

Alternate Designations
 1988 RP3 = 1999 GH53 
Ephemeris | Orbit Diagram | Orbital Elements | Physical Parameters | Discovery Circumstances ]
ABOUT SSD CREDITS/AWARDS PRIVACY/COPYRIGHT GLOSSARY LINKS
FirstGov 2014-Apr-18 00:28 UT
(server date/time)  
NASA Home Page
Site Manager:   Donald K. Yeomans
Webmaster  Alan B. Chamberlin